Location: Alpha Ridge Park
(39.3209°N, 76.9128°W)
Time: 22:29:56
(UTC-04:00)

Transit 2A - Pass Details

Date: 31 May 2019
Orbit: 593 x 966 km, 66.7° (Epoch: 15 June)

Event Time Altitude Azimuth Distance (km) Brightness Sun altitude
Rises 15:49:17 0° 329° (NNW) 3,504 9.6 51.1°
Reaches altitude 10° 15:51:54 10° 328° (NNW) 2,509 9.0 50.6°
Maximum altitude 15:57:40 73° 244° (WSW) 838 7.7 49.6°
Drops below altitude 10° 16:02:47 10° 161° (SSE) 2,240 8.5 48.6°
Sets 16:05:01 0° 159° (SSE) 3,102 9.1 48.2°
